Regional Weather Roundup
Issued by NWS

Home | Current Version | Previous Version | Text Only | Print | Product List | Glossary On
Versions: 1 2 3 4 5 6 7 8 9 10 11 12 13 14 15 16 17 18 19 20 21 22 23 24 25 26 27 28 29 30 31 32 33 34 35 36 37 38 39 40 41 42 43 44 45 46 47 48 49 50
000
ASUS44 KLIX 031110
RWRLA
LOUISIANA WEATHER ROUNDUP
NATIONAL WEATHER SERVICE NEW ORLEANS LA
500 AM CST TUE MAR 03 2015

NOTE: "FAIR" INDICATES FEW OR NO CLOUDS BELOW 12,000 FEET WITH NO
      SIGNIFICANT WEATHER AND/OR OBSTRUCTIONS TO VISIBILITY.
      SKY/WX - SKY CONDITION AND SIGNIFICANT WEATHER.
      TMP - AIR TEMPERATURE.    DP   - DEWPOINT TEMPERATURE.
      RH  - RELATIVE HUMIDITY.  PRES - PRESSURE.
      HX  - HEAT INDEX.         WCI  - WIND CHILL INDEX.

*  THESE STATIONS ARE NOT NWS OR FAA STATIONS AND ARE NOT UNDER
   NWS QUALITY CONTROL.

LAZ040-048-061>063-065-066-069-031200-
SOUTHEAST LOUISIANA

CITY           SKY/WX    TMP DP  RH WIND       PRES   REMARKS
N.O. AUDUBON   NOT AVBL
N.O. INTL ARPT FOG       66  64  93 S5        30.12S VSB 1/4
N.O. LAKEFRONT FOG       66  63  90 CALM      30.12F VSB 1/4
SLIDELL        FOG       64  64 100 S7        30.12S VSB 1/2
BATON ROUGE    FOG       57  57 100 E3        30.11S VSB 1/4
BOOTHVILLE     FOG       63  63 100 SE5       30.13S VSB 1/4
BELLE CHASSE   FOG       67  64  90 SE3       30.11F VSB 1/4
BOGALUSA*      FOG       66  64  91 S3        30.14R VSB 1/4
GALLIANO*      FOG       56  56  98 MISG      30.12S VSB<1/4
NEW ROADS*     FOG       51  51  98 CALM      30.11F VSB 1/4
GONZALES*      FOG       64  64  99 CALM      30.11S VSB 1/4
HAMMOND*       NOT AVBL
HOUMA*         HVY RAIN  61  61 100 CALM      30.11S VSB 1/4
PORT FOURCHON* CLOUDY    66  64  94 E7        30.15R FOG

$$

LAZ041-044-053-054-031200-
SOUTHWEST LOUISIANA

CITY           SKY/WX    TMP DP  RH WIND       PRES   REMARKS
LAKE CHARLES   FOG       53  53 100 NE6       30.08F VSB 1/4
LAFAYETTE      FOG       54  54 100 NE5       30.10S VSB 1/4
PATTERSON      CLOUDY    66  64  94 SE3       30.10S VSB 1/4
SALT POINT       N/A     65  65 100 E5        30.08S
NEW IBERIA     FOG       58  56  93 N3        30.11S VSB 1/2
CHENAULT AIRPK NOT AVBL

$$

LAZ027-028-031200-
CENTRAL LOUISIANA

CITY           SKY/WX    TMP DP  RH WIND       PRES   REMARKS
FORT POLK      FOG       49  48  99 E2        30.07F VSB 3/4
ALEXANDRIA INT CLOUDY    46  46 100 NE3       30.09F FOG
ALEXANDRIA     CLOUDY    45  44  97 CALM      30.10F

$$

LAZ001-002-031200-
NORTHWEST LOUISIANA

CITY           SKY/WX    TMP DP  RH WIND       PRES   REMARKS
SHREVEPORT     CLOUDY    43  43 100 SE5       30.06F FOG
BARKSDALE AFB  CLOUDY    43  43 100 SE5       30.06F
DTN SHREVEPORT CLOUDY    42  40  92 SE5       30.07F FOG

$$

LAZ014-016-031200-
NORTHEAST LOUISIANA

CITY           SKY/WX    TMP DP  RH WIND       PRES   REMARKS
MONROE         CLOUDY    41  41 100 CALM      30.12F FOG
TALLULAH       CLOUDY    45  44  97 CALM      30.12F FOG

$$



USA.gov is the U.S. government's official web portal to all federal, state and local government web resources and services.